This demonstration page uses our WeatherBlox Daily Observations layout. Learn more.

Left ArrowRight Arrow

Hourly Observations for September 30, 2018

Temp ( °F °C ) Dew Point ( °F °C ) Humidity (%) Winds ( mph kmh ) Pressure ( in mb ) Visibility ( mi km ) Precip ( " mm )
12:53 am 00:53 Clear 53 11.7 51 10.6 93 93 Calm 30.24 1024 10 16 0.00 0.00
1:53 am 01:53 Clear 53 11.7 51 10.6 93 93 Calm 30.24 1024 10 16 0.00 0.00
2:53 am 02:53 Clear 54 12.2 52 11.1 93 93 Calm 30.24 1024 10 16 0.00 0.00
3:53 am 03:53 Clear 52 11.1 50 10 93 93 Calm 30.24 1024 10 16 0.00 0.00
4:53 am 04:53 Clear with Mist and Fog 51 10.6 49 9.4 92 92 Calm 30.26 1025 6 10 0.00 0.00
5:53 am 05:53 Clear with Mist and Fog 51 10.6 49 9.4 92 92 Calm 30.27 1025 6 10 0.00 0.00
6:53 am 06:53 Clear with Mist and Fog 51 10.6 48 8.9 89 89 Calm 30.27 1025 6 10 0.00 0.00
7:53 am 07:53 Sunny 51 10.6 49 9.4 92 92 Calm 30.28 1025 7 11 0.00 0.00
8:53 am 08:53 Sunny 57 13.9 56 13.3 96 96 Calm 30.28 1026 10 16 0.00 0.00
9:53 am 09:53 Sunny 63 17.2 58 14.4 84 84 VRB 3 6 30.27 1025 10 16 0.00 0.00
10:53 am 10:53 Sunny 68 20 59 15 73 73 Calm 30.27 1025 10 16 0.00 0.00
11:53 am 11:53 Sunny 73 22.8 59 15 62 62 Calm 30.27 1025 10 16 0.00 0.00
12:53 pm 12:53 Sunny 75 23.9 58 14.4 55 55 WSW 5 7 30.25 1024 10 16 0.00 0.00
1:53 pm 13:53 Sunny 77 25 57 13.9 50 50 Calm 30.23 1024 10 16 0.00 0.00
2:53 pm 14:53 Sunny 79 26.1 58 14.4 49 49 VRB 3 6 30.19 1023 10 16 0.00 0.00
3:53 pm 15:53 Sunny 80 26.7 57 13.9 45 45 S 6 9 30.19 1022 10 16 0.00 0.00
4:53 pm 16:53 Sunny 79 26.1 57 13.9 47 47 VRB 5 7 30.18 1022 10 16 0.00 0.00
5:53 pm 17:53 Sunny 79 26.1 59 15 50 50 Calm 30.18 1022 10 16 0.00 0.00
6:53 pm 18:53 Sunny 73 22.8 62 16.7 69 69 WSW 3 6 30.18 1022 10 16 0.00 0.00
7:53 pm 19:53 Clear 64 17.8 61 16.1 90 90 Calm 30.19 1022 10 16 0.00 0.00
8:53 pm 20:53 Clear 61 16.1 59 15 93 93 Calm 30.20 1023 10 16 0.00 0.00
9:53 pm 21:53 Clear 60 15.6 57 13.9 90 90 Calm 30.21 1023 10 16 0.00 0.00
10:53 pm 22:53 Clear 58 14.4 56 13.3 93 93 Calm 30.22 1023 10 16 0.00 0.00
11:53 pm 23:53 Clear 57 13.9 54 12.2 90 90 Calm 30.22 1023 9 14 0.00 0.00

Powered by AerisWeather